Regional Weather Roundup
Issued by NWS

Home | Current Version | Previous Version | Text Only | Print | Product List | Glossary On
Versions: 1 2 3 4 5 6 7 8 9 10 11 12 13 14 15 16 17 18 19 20 21 22 23 24 25 26 27 28 29 30 31 32 33 34 35 36 37 38 39 40 41 42 43 44 45 46 47 48 49 50
000
ASUS43 KDTX 010610
RWRMI
MICHIGAN HOURLY REGIONAL WEATHER ROUNDUP
NATIONAL WEATHER SERVICE DETROIT/PONTIAC MI
200 AM EDT SUN MAY 01 2016

NOTE: "FAIR" INDICATES FEW OR NO CLOUDS BELOW 12,000 FEET WITH NO
SIGNIFICANT WEATHER AND/OR OBSTRUCTION TO VISIBILITY.

MIZ047>049-052>055-059>063-066>070-074>076-081>083-010700-
SOUTHEAST LOWER MICHIGAN

CITY           SKY/WX    TMP DP  RH WIND       PRES   REMARKS
ADRIAN         LGT RAIN  48  47  96 E10       29.91F
6HR MIN TEMP:  46; 6HR MAX TEMP:  48; 6HR PCP:  0.03;

ALMA           CLOUDY    42  41  97 N6        30.01R
6HR MIN TEMP:  41; 6HR MAX TEMP:  47;

ANN ARBOR      CLOUDY    48  46  93 NE10      29.93F
BAD AXE        LGT RAIN  43  42  95 CALM      30.04F
CARO           LGT RAIN  44  43  97 NE5       30.02F
DETROIT CITY   LGT RAIN  47  45  93 NE12      29.95F
6HR MIN TEMP:  47; 6HR MAX TEMP:  48; 6HR PCP:  0.45;

DETROIT        LGT RAIN  49  47  93 NE8       29.94F
6HR MIN TEMP:  48; 6HR MAX TEMP:  50; 6HR PCP:  0.52;

FLINT          LGT RAIN  47  43  86 NE12      29.99F
6HR MIN TEMP:  46; 6HR MAX TEMP:  52; 6HR PCP:  0.36;

GROSSE ILE     LGT RAIN  48  46  93 NE14      29.91F
HILLSDALE      RAIN      47  47 100 NE10G16   29.91S
6HR MIN TEMP:  45; 6HR MAX TEMP:  47;

HOWELL         CLOUDY    45  45  99 NE7       29.95F

CITY           SKY/WX    TMP DP  RH WIND       PRES   REMARKS
JACKSON        CLOUDY    48  46  93 NE8       29.93F FOG
6HR MIN TEMP:  46; 6HR MAX TEMP:  48; 6HR PCP:  0.64;

LAMBERTVILLE   CLOUDY    50  48  94 E8G17     29.90F
6HR MIN TEMP:  48; 6HR MAX TEMP:  50;

LANSING        CLOUDY    44  42  93 E10       29.97F
6HR MIN TEMP:  44; 6HR MAX TEMP:  48; 6HR PCP:  0.34;

LAPEER         RAIN      45  43  95 NE6       30.00F
6HR MIN TEMP:  42; 6HR MAX TEMP:  47; 6HR PCP:  0.21;

MASON          CLOUDY    45  43  95 NE12      29.95S FOG
MONROE         CLOUDY    49  48  99 NE7       29.91F
6HR MIN TEMP:  47; 6HR MAX TEMP:  49; 6HR PCP:  0.45;

MT. CLEMENS    RAIN      46  46 100 NE10      29.96F FOG
                                      6HR PCP:  0.44;

PONTIAC        CLOUDY    46  45  96 NE10      29.93F FOG
6HR MIN TEMP:  45; 6HR MAX TEMP:  48; 6HR PCP:  0.33;

PORT HOPE        N/A     44  42  93 CALM      30.04
6HR MIN TEMP:  42; 6HR MAX TEMP:  45; 6HR PCP:  0.03;

PORT HURON     RAIN      45  45 100 NE5       30.00F
TRI CITIES     LGT RAIN  45  42  89 NE17      29.99F
6HR MIN TEMP:  45; 6HR MAX TEMP:  50; 6HR PCP:  0.27;

MIDLAND        DRIZZLE   42  40  94 NE12      29.98F
6HR MIN TEMP:  42; 6HR MAX TEMP:  47; 6HR PCP:  0.04;

TROY           LGT RAIN  47  47  97 N10       29.95F
SAGINAW HB     LGT RAIN  43  41  93 NE13      29.99F
$$
MIZ043>046-050>051-056>058-064>065-071>073-077>080-010700-
SOUTHWEST LOWER MICHIGAN

CITY           SKY/WX    TMP DP  RH WIND       PRES   REMARKS
BATTLE CREEK   CLOUDY    48  46  93 NE9       29.93S FOG
6HR MIN TEMP:  47; 6HR MAX TEMP:  48; 6HR PCP:  0.23;

BENTON HARBOR  CLOUDY    49  47  93 E8        29.91S FOG
6HR MIN TEMP:  48; 6HR MAX TEMP:  50; 6HR PCP:  0.13;

BIG RAPIDS     DRIZZLE   42  38  83 E5        30.01R
6HR MIN TEMP:  42; 6HR MAX TEMP:  50; 6HR PCP:  0.05;

COLDWATER      LGT RAIN  48  47  99 E8        29.91S
6HR MIN TEMP:  47; 6HR MAX TEMP:  48;

FREMONT        CLOUDY    42  41  95 E13       29.97F
HOLLAND        CLOUDY    48  47  96 E9        29.95S
6HR MIN TEMP:  47; 6HR MAX TEMP:  53; 6HR PCP:  0.18;

GRAND RAPIDS   CLOUDY    46  44  93 NE16      29.95F
6HR MIN TEMP:  46; 6HR MAX TEMP:  49; 6HR PCP:  0.33;

IONIA          CLOUDY    43  42  97 NE10      29.96F
6HR MIN TEMP:  43; 6HR MAX TEMP:  47; 6HR PCP:  0.25;

KALAMAZOO      CLOUDY    49  45  86 NE5       29.93S FOG
6HR MIN TEMP:  48; 6HR MAX TEMP:  49; 6HR PCP:  0.18;

LUDINGTON      LGT RAIN  44  41  91 E5        30.04R
6HR MIN TEMP:  44; 6HR MAX TEMP:  55; 6HR PCP:  0.08;

MARSHALL       DRIZZLE   47  46  96 NE6       29.92F
6HR MIN TEMP:  46; 6HR MAX TEMP:  48; 6HR PCP:  0.30;

MOUNT PLEASANT RAIN      41  39  91 NE7       30.00F
6HR MIN TEMP:  41; 6HR MAX TEMP:  50; 6HR PCP:  0.08;

MUSKEGON       CLOUDY    45  40  82 NE14      29.96F
6HR MIN TEMP:  45; 6HR MAX TEMP:  50; 6HR PCP:  0.26;

SOUTH HAVEN    CLOUDY    48  48  98 E7        29.92S FOG
$$
MIZ016>042-010700-
NORTHERN LOWER MICHIGAN

CITY           SKY/WX    TMP DP  RH WIND       PRES   REMARKS
ALPENA         CLOUDY    45  30  55 N3        30.08F
6HR MIN TEMP:  45; 6HR MAX TEMP:  49;

BEAVER ISLAND  MOCLDY    42  36  79 NE5       30.09F
6HR MIN TEMP:  42; 6HR MAX TEMP:  50;

BELLAIRE       CLOUDY    50  26  39 NE6       30.04F
6HR MIN TEMP:  50; 6HR MAX TEMP:  57;

CADILLAC       DRIZZLE   44  33  66 E12       29.99F
CHARLEVOIX     CLOUDY    47  27  45 NE7       30.09F
FRANKFORT      CLOUDY    50  33  50 NE3       30.02S
GAYLORD        CLOUDY    47  24  40 E6        30.05F
6HR MIN TEMP:  47; 6HR MAX TEMP:  52;

GRAYLING       CLOUDY    46  28  49 NE8       30.04F
HARBOR SPRINGS CLOUDY    45  27  49 E7        30.07F
HOUGHTON LAKE  CLOUDY    44  33  65 NE7       30.03F
6HR MIN TEMP:  44; 6HR MAX TEMP:  52;

MANISTEE       CLOUDY    48  34  57 CALM      30.03R
OSCODA         CLOUDY    45  34  66 NE5       30.05F
6HR MIN TEMP:  45; 6HR MAX TEMP:  48;

PELLSTON       CLOUDY    42  31  64 CALM      30.09F
6HR MIN TEMP:  42; 6HR MAX TEMP:  53;

ROGERS CITY    CLOUDY    42  32  66 CALM      30.09F
TRAVERSE CITY  CLOUDY    48  33  56 NE3       30.01F
6HR MIN TEMP:  48; 6HR MAX TEMP:  50;

$$
MIZ007>008-015-010700-
EASTERN UPPER MICHIGAN

CITY           SKY/WX    TMP DP  RH WIND       PRES   REMARKS
KINROSS          N/A     39  36  87 N7        30.11F WCI  34
6HR MIN TEMP:  39; 6HR MAX TEMP:  46;

MACKINAC ISLAN CLOUDY    41  34  75 NE8       30.08F
6HR MIN TEMP:  41; 6HR MAX TEMP:  46;

NEWBERRY       PTCLDY    35  34  96 NE5       30.11S WCI  31
6HR MIN TEMP:  35; 6HR MAX TEMP:  46;

S. S. MARIE    CLOUDY    45  31  58 NE8       30.11F
6HR MIN TEMP:  39; 6HR MAX TEMP:  52;

MUNISING         N/A     33  31  92 S3        30.13F
6HR MIN TEMP:  33; 6HR MAX TEMP:  42;

$$
MIZ004>006-011>014-085-010700-
CENTRAL UPPER MICHIGAN

CITY           SKY/WX    TMP DP  RH WIND       PRES   REMARKS
MANISTIQUE     CLOUDY    38  34  87 N9        30.09F WCI  31
6HR MIN TEMP:  38; 6HR MAX TEMP:  50;

ESCANABA       CLOUDY    41  34  75 N7        30.10F
6HR MIN TEMP:  41; 6HR MAX TEMP:  50;

MENOMINEE      CLOUDY    45  30  57 N10       30.08S
6HR MIN TEMP:  45; 6HR MAX TEMP:  52;

SAWYER-GWINN   CLOUDY    37  34  89 N13       30.13F WCI  29
6HR MIN TEMP:  32; 6HR MAX TEMP:  40;

$$
MIZ001>003-009>011-084-010700-
WESTERN UPPER MICHIGAN

CITY           SKY/WX    TMP DP  RH WIND       PRES   REMARKS
IRON MOUNTAIN  CLOUDY    38  32  79 NW5       30.11S WCI  34
6HR MIN TEMP:  38; 6HR MAX TEMP:  50;

HOUGHTON       CLEAR     40  34  79 NE10      30.18S WCI  33
6HR MIN TEMP:  40; 6HR MAX TEMP:  47;

COPPER HARBOR    N/A     40  37  89 MISG      30.21S
6HR MIN TEMP:  39; 6HR MAX TEMP:  43;

IRONWOOD         N/A     36  30  80 CALM      30.16F
6HR MIN TEMP:  34; 6HR MAX TEMP:  46;

$$

ABBREVIATIONS USED IN REMARKS
   TC - TEMPERATURE IN CELSIUS
  WCI - WIND CHILL INDEX
   HX - HEAT INDEX
  VSB - VISIBILITY





USA.gov is the U.S. government's official web portal to all federal, state and local government web resources and services.